Precipitable_Water
0.42 0.43 0.43 0.43 0.44 0.45 0.45 0.47 0.50 0.55 0.58 0.60 0.62 0.65 0.73 0.79 0.82 0.84 0.86 0.87 0.88 0.90 0.90 0.90 0.90 0.90 0.91 0.92 0.95 0.95 0.95 0.84 0.78 0.75 0.76 0.85 0.94 0.96 0.91 0.92 0.87 0.79 0.77 0.70 0.63 0.58 0.48 0.52 0.55 0.61 0.59 0.51 0.47 0.40 0.48 0.45 0.50 0.50 0.42 0.38 0.32 0.34 0.33 0.38 0.37 0.42 0.54 0.46 0.50 0.50 0.54 0.52 0.49 0.66 0.75 0.98 0.91 0.86 0.86 0.91 1.02 1.15 1.16 1.23 1.37 1.47 1.48 1.56
0.41 0.42 0.42 0.42 0.44 0.44 0.45 0.46 0.49 0.53 0.56 0.60 0.61 0.64 0.70 0.77 0.81 0.82 0.85 0.87 0.87 0.89 0.91 0.91 0.92 0.93 0.93 0.95 0.96 0.97 0.92 0.81 0.72 0.74 0.79 0.97 0.96 0.91 0.89 0.87 0.79 0.72 0.74 0.59 0.52 0.53 0.52 0.54 0.58 0.59 0.58 0.48 0.53 0.40 0.49 0.45 0.51 0.45 0.43 0.41 0.36 0.39 0.42 0.49 0.53 0.50 0.43 0.42 0.50 0.65 0.70 0.55 0.55 0.61 0.80 0.81 0.83 0.93 0.80 0.91 0.93 0.96 1.09 1.29 1.43 1.49 1.46 1.51
0.41 0.41 0.42 0.42 0.43 0.44 0.44 0.46 0.49 0.52 0.55 0.58 0.61 0.62 0.67 0.74 0.78 0.81 0.82 0.85 0.87 0.89 0.91 0.92 0.93 0.94 0.95 0.97 0.98 0.99 0.90 0.75 0.71 0.70 0.88 1.02 0.95 0.88 0.85 0.85 0.75 0.75 0.68 0.55 0.61 0.61 0.58 0.58 0.61 0.58 0.55 0.49 0.53 0.45 0.43 0.48 0.50 0.49 0.44 0.38 0.40 0.48 0.49 0.50 0.50 0.54 0.57 0.53 0.55 0.60 0.73 0.70 0.64 0.58 0.82 0.84 0.83 0.93 0.86 0.73 0.87 0.91 0.97 1.15 1.30 1.42 1.47 1.48
0.42 0.42 0.43 0.42 0.42 0.43 0.44 0.45 0.48 0.52 0.54 0.57 0.59 0.61 0.65 0.69 0.74 0.77 0.80 0.82 0.84 0.87 0.90 0.92 0.94 0.94 0.96 0.99 1.01 1.00 0.87 0.69 0.60 0.76 0.97 1.00 0.89 0.84 0.82 0.81 0.73 0.72 0.69 0.66 0.68 0.66 0.65 0.64 0.63 0.60 0.53 0.46 0.47 0.52 0.39 0.47 0.44 0.54 0.44 0.40 0.43 0.50 0.43 0.50 0.56 0.54 0.58 0.63 0.60 0.64 0.73 0.71 0.73 0.72 0.75 0.86 0.82 0.84 0.98 1.01 0.79 0.85 1.06 1.14 1.26 1.35 1.43 1.42
0.41 0.42 0.42 0.42 0.42 0.42 0.43 0.44 0.47 0.51 0.54 0.56 0.57 0.59 0.62 0.66 0.70 0.75 0.77 0.79 0.82 0.84 0.88 0.92 0.94 0.95 0.97 1.01 1.01 1.01 0.75 0.51 0.58 0.87 0.96 0.98 0.92 0.85 0.82 0.76 0.71 0.71 0.70 0.69 0.67 0.64 0.63 0.60 0.58 0.57 0.52 0.45 0.47 0.45 0.42 0.46 0.49 0.51 0.47 0.50 0.48 0.48 0.44 0.54 0.58 0.58 0.55 0.62 0.65 0.67 0.69 0.68 0.90 0.87 0.91 0.90 0.81 0.81 0.97 1.13 1.23 1.11 1.19 1.21 1.23 1.33 1.39 1.36
0.42 0.42 0.42 0.41 0.41 0.41 0.42 0.43 0.45 0.50 0.53 0.55 0.57 0.58 0.60 0.62 0.67 0.72 0.75 0.76 0.79 0.83 0.87 0.92 0.94 0.95 1.00 1.02 1.01 0.93 0.70 0.34 0.71 0.85 1.06 0.96 0.96 0.89 0.84 0.77 0.74 0.76 0.75 0.67 0.62 0.62 0.62 0.57 0.54 0.47 0.48 0.44 0.43 0.39 0.47 0.48 0.51 0.39 0.46 0.47 0.53 0.54 0.47 0.55 0.57 0.59 0.58 0.54 0.59 0.64 0.77 0.84 0.82 0.80 1.03 0.89 0.85 1.05 1.19 1.19 1.30 1.37 1.37 1.37 1.36 1.33 1.32 1.34
0.41 0.42 0.42 0.42 0.42 0.41 0.42 0.43 0.45 0.48 0.51 0.54 0.55 0.57 0.58 0.60 0.65 0.70 0.73 0.76 0.79 0.83 0.88 0.93 0.94 0.96 1.01 1.04 0.98 0.84 0.65 0.62 0.82 0.98 1.03 1.00 0.95 0.89 0.88 0.82 0.82 0.80 0.78 0.67 0.62 0.58 0.58 0.55 0.53 0.48 0.46 0.44 0.47 0.43 0.46 0.44 0.50 0.41 0.38 0.45 0.51 0.54 0.48 0.54 0.53 0.63 0.61 0.56 0.62 0.76 0.80 0.78 0.73 0.76 0.96 0.84 0.96 1.13 1.28 1.25 1.36 1.46 1.47 1.43 1.36 1.38 1.35 1.36
0.41 0.42 0.42 0.43 0.42 0.42 0.42 0.43 0.44 0.47 0.51 0.53 0.54 0.56 0.58 0.59 0.63 0.67 0.72 0.76 0.80 0.85 0.90 0.93 0.95 0.97 1.02 0.95 0.79 0.67 0.66 0.61 0.86 1.07 1.03 1.03 0.98 0.93 0.92 0.89 0.88 0.83 0.72 0.63 0.62 0.58 0.60 0.55 0.52 0.51 0.47 0.41 0.46 0.42 0.48 0.43 0.45 0.40 0.39 0.49 0.53 0.56 0.55 0.53 0.54 0.60 0.63 0.64 0.73 0.78 0.70 0.69 0.79 0.83 0.97 0.81 0.99 1.16 1.23 1.44 1.45 1.45 1.37 1.46 1.40 1.39 1.41 1.42
0.42 0.42 0.42 0.43 0.43 0.42 0.42 0.43 0.43 0.46 0.49 0.52 0.54 0.55 0.57 0.58 0.61 0.65 0.70 0.74 0.80 0.87 0.92 0.94 0.96 1.00 1.06 0.93 0.74 0.61 0.56 0.79 0.99 1.04 1.06 1.01 0.99 0.97 0.93 0.82 0.91 0.83 0.75 0.71 0.69 0.64 0.64 0.54 0.54 0.54 0.45 0.44 0.52 0.44 0.47 0.42 0.37 0.45 0.46 0.50 0.52 0.52 0.54 0.54 0.53 0.55 0.65 0.69 0.77 0.74 0.72 0.79 0.86 1.01 0.87 0.89 0.94 1.08 1.22 1.27 1.43 1.40 1.37 1.41 1.39 1.40 1.41 1.36
0.42 0.43 0.43 0.43 0.43 0.43 0.43 0.43 0.43 0.45 0.48 0.51 0.53 0.55 0.56 0.57 0.59 0.63 0.70 0.74 0.80 0.90 0.94 0.95 0.99 1.02 0.96 0.81 0.74 0.53 0.66 0.97 1.03 1.05 1.06 1.05 1.03 1.01 0.94 0.88 0.87 0.82 0.75 0.70 0.73 0.66 0.59 0.58 0.55 0.58 0.55 0.51 0.54 0.46 0.50 0.46 0.42 0.52 0.49 0.49 0.48 0.49 0.51 0.53 0.51 0.56 0.64 0.69 0.74 0.70 0.74 0.76 0.82 0.84 0.67 0.97 1.08 1.13 1.12 1.11 1.19 1.30 1.22 1.31 1.30 1.31 1.44 1.48
0.42 0.42 0.43 0.44 0.44 0.44 0.44 0.43 0.43 0.44 0.46 0.50 0.53 0.54 0.55 0.56 0.59 0.62 0.70 0.76 0.84 0.93 0.96 0.97 1.03 1.02 0.86 0.82 0.60 0.53 0.90 0.95 1.03 1.06 1.06 1.06 1.04 1.00 0.97 0.94 0.90 0.82 0.78 0.72 0.69 0.65 0.64 0.64 0.61 0.61 0.57 0.52 0.55 0.52 0.52 0.52 0.56 0.52 0.51 0.50 0.50 0.50 0.52 0.52 0.56 0.55 0.60 0.61 0.80 0.78 0.78 0.82 0.75 0.72 0.73 0.86 1.05 1.15 1.06 1.08 1.16 1.17 1.22 1.16 1.26 1.24 1.32 1.45
0.41 0.42 0.43 0.44 0.45 0.44 0.44 0.44 0.43 0.43 0.45 0.48 0.51 0.52 0.54 0.56 0.58 0.62 0.72 0.81 0.88 0.95 0.97 0.99 1.04 1.00 0.93 0.76 0.65 0.64 0.95 0.93 1.03 1.06 1.07 1.06 1.00 1.02 1.05 1.06 0.98 0.88 0.82 0.70 0.69 0.67 0.65 0.65 0.61 0.57 0.47 0.65 0.48 0.55 0.55 0.62 0.55 0.54 0.53 0.40 0.46 0.48 0.45 0.55 0.54 0.55 0.57 0.60 0.81 0.94 0.82 0.62 0.62 0.57 0.78 0.93 1.02 1.05 1.06 1.08 1.13 1.13 1.12 1.16 1.16 1.22 1.27 1.35
0.40 0.41 0.43 0.45 0.45 0.45 0.45 0.45 0.45 0.44 0.44 0.46 0.49 0.51 0.53 0.55 0.57 0.64 0.75 0.83 0.90 0.96 1.02 1.03 1.04 1.00 0.85 0.62 0.67 0.85 1.00 1.03 1.03 1.08 1.07 1.10 1.07 1.09 1.10 1.10 1.04 1.00 0.91 0.82 0.74 0.74 0.71 0.67 0.63 0.57 0.65 0.61 0.55 0.46 0.54 0.59 0.56 0.55 0.51 0.45 0.42 0.40 0.38 0.51 0.60 0.59 0.59 0.67 0.83 0.89 0.47 0.45 0.53 0.64 0.79 0.94 0.99 1.03 1.00 1.02 1.05 1.09 1.09 1.13 1.15 1.14 1.26 1.34
0.40 0.41 0.42 0.44 0.45 0.45 0.46 0.47 0.47 0.46 0.45 0.45 0.48 0.50 0.52 0.54 0.58 0.66 0.78 0.85 0.93 1.01 1.04 1.06 1.03 0.96 0.80 0.64 0.79 0.92 1.02 1.09 1.09 1.04 1.01 1.09 1.02 1.00 1.09 1.09 1.10 1.04 1.02 0.89 0.84 0.83 0.72 0.70 0.66 0.64 0.69 0.61 0.53 0.69 0.58 0.56 0.58 0.43 0.49 0.48 0.36 0.33 0.33 0.53 0.57 0.63 0.58 0.77 0.86 0.91 0.42 0.48 0.57 0.65 0.82 0.90 0.95 0.96 0.94 0.95 1.00 1.02 1.06 1.11 1.13 1.16 1.22 1.29
0.39 0.40 0.42 0.43 0.45 0.45 0.47 0.48 0.48 0.48 0.46 0.46 0.47 0.49 0.51 0.52 0.58 0.68 0.82 0.90 1.00 1.07 1.06 1.07 1.03 0.88 0.73 0.72 0.97 1.03 1.09 1.12 0.99 0.96 1.03 0.99 0.97 0.96 0.96 1.01 1.02 1.00 0.97 0.93 0.86 0.84 0.75 0.71 0.67 0.59 0.56 0.67 0.64 0.56 0.49 0.50 0.49 0.48 0.36 0.29 0.37 0.33 0.36 0.47 0.61 0.62 0.52 0.73 0.84 0.70 0.43 0.48 0.59 0.67 0.80 0.88 0.89 0.92 0.89 0.94 0.98 0.98 1.00 1.07 1.13 1.15 1.18 1.26
0.39 0.40 0.41 0.42 0.44 0.45 0.47 0.48 0.49 0.49 0.47 0.46 0.45 0.47 0.50 0.54 0.60 0.74 0.88 0.94 1.04 1.05 1.04 0.90 0.90 0.88 0.76 0.62 0.81 1.05 1.01 0.87 0.87 1.01 1.03 1.02 0.99 0.92 0.97 0.98 0.99 1.01 0.96 0.94 0.94 0.86 0.81 0.75 0.59 0.59 0.59 0.61 0.54 0.48 0.44 0.41 0.39 0.43 0.35 0.32 0.31 0.35 0.34 0.39 0.54 0.63 0.67 0.69 0.73 0.64 0.46 0.55 0.55 0.72 0.83 0.88 0.86 0.90 0.87 0.90 0.94 0.96 0.99 1.04 1.05 1.10 1.15 1.25
0.38 0.39 0.40 0.42 0.44 0.46 0.47 0.48 0.49 0.50 0.48 0.45 0.44 0.45 0.50 0.56 0.68 0.84 0.91 0.97 0.99 1.02 0.92 0.81 0.91 0.94 0.59 0.85 1.03 0.82 0.80 0.87 0.98 0.98 0.98 1.02 1.02 0.99 0.95 0.95 0.91 0.93 0.96 0.89 0.91 0.83 0.79 0.68 0.66 0.59 0.61 0.52 0.52 0.46 0.36 0.32 0.31 0.34 0.40 0.34 0.36 0.32 0.36 0.34 0.50 0.57 0.64 0.64 0.56 0.63 0.53 0.56 0.62 0.73 0.82 0.87 0.85 0.83 0.87 0.87 0.90 0.93 0.98 1.06 1.06 1.08 1.13 1.23
0.38 0.38 0.40 0.42 0.44 0.47 0.49 0.50 0.50 0.50 0.48 0.45 0.42 0.43 0.47 0.63 0.82 0.86 0.88 0.92 0.93 0.92 0.92 1.01 0.97 0.80 0.65 0.85 0.64 0.72 0.89 0.88 0.89 0.93 0.96 1.01 1.03 1.00 0.95 0.91 0.93 0.91 0.90 0.79 0.84 0.75 0.79 0.65 0.65 0.48 0.51 0.47 0.45 0.41 0.33 0.24 0.31 0.32 0.34 0.34 0.34 0.34 0.38 0.35 0.37 0.50 0.56 0.62 0.57 0.60 0.57 0.57 0.64 0.73 0.79 0.83 0.86 0.83 0.80 0.84 0.84 0.87 0.94 1.05 1.13 1.12 1.13 1.23
0.39 0.39 0.40 0.42 0.45 0.48 0.51 0.51 0.52 0.50 0.48 0.44 0.42 0.50 0.63 0.78 0.83 0.80 0.75 0.77 0.68 0.59 0.53 0.64 0.67 0.47 0.43 0.62 0.82 0.84 0.88 0.89 0.95 0.94 0.89 0.93 0.98 1.00 1.00 1.01 0.94 0.87 0.77 0.73 0.67 0.73 0.76 0.67 0.65 0.50 0.39 0.41 0.41 0.42 0.36 0.35 0.38 0.35 0.36 0.34 0.33 0.30 0.35 0.36 0.46 0.59 0.57 0.54 0.51 0.56 0.52 0.54 0.61 0.68 0.76 0.81 0.85 0.81 0.83 0.83 0.81 0.86 0.96 1.05 1.11 1.15 1.19 1.22
0.40 0.41 0.40 0.42 0.46 0.50 0.51 0.52 0.51 0.49 0.47 0.39 0.35 0.45 0.61 0.53 0.48 0.48 0.67 0.70 0.59 0.53 0.53 0.56 0.67 0.66 0.69 0.72 0.75 0.85 0.94 0.93 0.82 0.87 0.93 1.00 0.94 0.89 0.89 0.93 0.87 0.87 0.79 0.66 0.69 0.68 0.75 0.54 0.47 0.43 0.44 0.46 0.49 0.50 0.49 0.48 0.48 0.45 0.42 0.38 0.35 0.36 0.39 0.47 0.51 0.60 0.64 0.58 0.51 0.56 0.57 0.61 0.62 0.67 0.74 0.79 0.83 0.80 0.85 0.84 0.79 0.83 0.96 1.09 1.10 1.14 1.20 1.25
0.41 0.41 0.42 0.43 0.47 0.50 0.51 0.51 0.49 0.48 0.47 0.40 0.35 0.34 0.32 0.34 0.30 0.30 0.46 0.55 0.62 0.66 0.64 0.64 0.65 0.65 0.62 0.73 0.80 0.81 0.72 0.75 0.84 0.84 0.90 1.05 0.97 0.87 0.77 0.83 0.76 0.69 0.73 0.77 0.70 0.76 0.71 0.53 0.50 0.52 0.54 0.54 0.52 0.53 0.54 0.54 0.55 0.48 0.45 0.44 0.42 0.43 0.39 0.49 0.49 0.59 0.67 0.56 0.51 0.58 0.57 0.62 0.66 0.71 0.77 0.81 0.81 0.78 0.83 0.86 0.84 0.88 1.00 1.12 1.12 1.16 1.23 1.21
0.41 0.42 0.43 0.44 0.48 0.50 0.51 0.50 0.49 0.49 0.49 0.42 0.39 0.32 0.36 0.44 0.50 0.55 0.55 0.47 0.61 0.69 0.71 0.70 0.74 0.69 0.78 0.79 0.81 0.87 0.82 0.67 0.73 0.82 0.96 1.00 0.92 0.78 0.75 0.73 0.70 0.64 0.78 0.77 0.75 0.66 0.58 0.53 0.58 0.61 0.62 0.62 0.60 0.58 0.56 0.52 0.50 0.51 0.45 0.47 0.44 0.47 0.53 0.58 0.58 0.62 0.65 0.59 0.53 0.62 0.55 0.61 0.68 0.73 0.80 0.80 0.80 0.86 0.93 0.96 0.98 0.95 0.99 1.09 1.15 1.16 1.20 1.18
0.41 0.42 0.42 0.45 0.48 0.51 0.49 0.50 0.53 0.51 0.47 0.46 0.41 0.45 0.46 0.54 0.59 0.61 0.66 0.61 0.58 0.72 0.71 0.71 0.70 0.68 0.70 0.77 0.78 0.89 0.71 0.64 0.63 0.77 0.85 0.93 0.87 0.83 0.79 0.72 0.68 0.69 0.75 0.76 0.63 0.62 0.55 0.60 0.69 0.72 0.68 0.62 0.59 0.58 0.56 0.57 0.56 0.50 0.48 0.42 0.39 0.51 0.48 0.41 0.54 0.61 0.63 0.59 0.55 0.63 0.58 0.63 0.70 0.76 0.78 0.85 0.85 0.89 0.97 1.03 1.04 1.04 1.02 1.08 1.13 1.13 1.13 1.12
0.42 0.42 0.43 0.44 0.49 0.50 0.51 0.52 0.60 0.50 0.45 0.49 0.47 0.43 0.52 0.58 0.58 0.63 0.63 0.52 0.57 0.68 0.74 0.75 0.75 0.68 0.68 0.65 0.75 0.75 0.69 0.67 0.69 0.70 0.92 0.89 0.80 0.90 0.79 0.76 0.72 0.70 0.66 0.71 0.69 0.64 0.62 0.72 0.83 0.78 0.74 0.66 0.56 0.57 0.54 0.51 0.47 0.53 0.52 0.48 0.45 0.48 0.52 0.52 0.48 0.58 0.66 0.65 0.69 0.68 0.60 0.56 0.62 0.60 0.68 0.83 0.92 0.89 0.95 0.94 1.02 1.06 1.09 1.14 1.20 1.20 1.16 1.12
0.43 0.42 0.43 0.44 0.48 0.52 0.48 0.52 0.49 0.42 0.50 0.51 0.46 0.50 0.54 0.58 0.59 0.66 0.63 0.65 0.72 0.63 0.85 0.77 0.82 0.72 0.74 0.82 0.79 0.67 0.70 0.71 0.72 0.79 0.88 0.88 0.82 0.85 0.77 0.86 0.79 0.68 0.69 0.73 0.71 0.66 0.66 0.78 0.85 0.77 0.73 0.70 0.63 0.56 0.55 0.54 0.45 0.49 0.55 0.54 0.54 0.54 0.50 0.50 0.55 0.53 0.49 0.50 0.65 0.62 0.43 0.42 0.56 0.60 0.64 0.76 0.84 0.86 0.95 0.92 0.95 1.00 1.06 1.09 1.06 1.08 1.14 1.16
0.43 0.43 0.43 0.44 0.48 0.50 0.49 0.40 0.50 0.48 0.45 0.40 0.42 0.50 0.56 0.55 0.57 0.74 0.63 0.57 0.44 0.56 0.71 0.60 0.78 0.61 0.81 0.67 0.74 0.70 0.71 0.59 0.75 0.80 0.89 0.89 0.96 0.85 0.86 0.80 0.84 0.65 0.71 0.73 0.69 0.69 0.68 0.78 0.77 0.71 0.69 0.67 0.66 0.60 0.62 0.61 0.52 0.47 0.53 0.63 0.59 0.57 0.55 0.53 0.51 0.50 0.38 0.37 0.56 0.70 0.44 0.37 0.60 0.59 0.67 0.75 0.81 0.87 0.95 0.97 1.00 1.04 1.05 1.09 1.07 1.08 1.08 1.11
0.43 0.43 0.43 0.45 0.48 0.52 0.34 0.27 0.42 0.44 0.32 0.39 0.44 0.53 0.58 0.55 0.57 0.70 0.66 0.46 0.42 0.58 0.52 0.67 0.70 0.66 0.78 0.70 0.71 0.73 0.48 0.55 0.79 0.83 0.84 0.92 0.82 0.97 0.73 0.72 0.82 0.83 0.82 0.79 0.70 0.59 0.74 0.71 0.72 0.73 0.69 0.66 0.64 0.58 0.61 0.61 0.52 0.47 0.68 0.71 0.67 0.62 0.57 0.56 0.55 0.52 0.50 0.61 0.62 0.68 0.62 0.46 0.44 0.59 0.74 0.79 0.82 0.84 0.90 0.94 0.97 0.99 1.02 1.05 1.08 1.07 1.09 1.12
0.43 0.43 0.44 0.45 0.48 0.53 0.42 0.43 0.41 0.30 0.35 0.46 0.53 0.53 0.47 0.44 0.54 0.83 0.66 0.30 0.31 0.64 0.54 0.65 0.65 0.80 0.73 0.72 0.74 0.64 0.63 0.72 0.59 0.72 0.87 0.90 0.91 0.83 0.76 0.70 0.71 0.73 0.80 0.74 0.49 0.67 0.74 0.67 0.68 0.66 0.67 0.65 0.61 0.66 0.67 0.65 0.57 0.59 0.73 0.75 0.68 0.68 0.64 0.59 0.56 0.53 0.57 0.53 0.46 0.61 0.67 0.51 0.48 0.60 0.81 0.81 0.73 0.75 0.80 0.86 0.89 0.93 0.99 1.05 1.04 1.02 1.10 1.15
0.43 0.44 0.44 0.45 0.48 0.54 0.60 0.48 0.45 0.38 0.47 0.53 0.54 0.49 0.43 0.47 0.75 0.73 0.46 0.30 0.51 0.58 0.83 0.63 0.81 0.70 0.66 0.71 0.65 0.69 0.66 0.70 0.57 0.72 0.85 0.89 0.90 0.82 0.68 0.75 0.78 0.80 0.84 0.79 0.62 0.72 0.78 0.75 0.73 0.72 0.67 0.62 0.71 0.74 0.73 0.73 0.63 0.73 0.79 0.79 0.76 0.75 0.71 0.66 0.59 0.55 0.55 0.49 0.39 0.52 0.64 0.50 0.49 0.60 0.67 0.77 0.72 0.69 0.74 0.80 0.85 0.90 0.95 0.99 1.03 1.06 1.14 1.21
0.44 0.44 0.46 0.47 0.47 0.53 0.54 0.52 0.47 0.55 0.54 0.52 0.50 0.44 0.39 0.52 0.72 0.47 0.34 0.27 0.56 0.48 0.63 0.62 0.62 0.54 0.64 0.59 0.59 0.64 0.64 0.64 0.69 0.71 0.78 0.73 0.79 0.86 0.82 0.91 0.81 0.78 0.73 0.80 0.75 0.76 0.78 0.89 0.84 0.74 0.67 0.74 0.76 0.78 0.79 0.77 0.78 0.85 0.80 0.72 0.69 0.69 0.67 0.68 0.67 0.62 0.52 0.39 0.44 0.61 0.65 0.58 0.44 0.57 0.63 0.62 0.64 0.74 0.77 0.80 0.85 0.89 0.95 1.00 1.03 1.07 1.09 1.12
0.44 0.45 0.47 0.49 0.38 0.47 0.49 0.35 0.44 0.55 0.57 0.56 0.48 0.37 0.37 0.57 0.47 0.33 0.28 0.38 0.55 0.52 0.65 0.59 0.56 0.66 0.59 0.55 0.51 0.61 0.63 0.64 0.66 0.67 0.65 0.74 0.71 0.75 0.75 0.73 0.83 0.75 0.69 0.70 0.69 0.75 0.78 0.79 0.73 0.74 0.83 0.82 0.83 0.73 0.82 0.85 0.84 0.81 0.70 0.66 0.65 0.61 0.67 0.60 0.60 0.63 0.45 0.39 0.52 0.64 0.63 0.63 0.42 0.54 0.69 0.77 0.82 0.82 0.80 0.76 0.80 0.85 0.93 0.99 1.02 1.06 1.11 1.11
0.43 0.45 0.49 0.47 0.50 0.55 0.40 0.34 0.46 0.49 0.49 0.46 0.38 0.33 0.38 0.34 0.50 0.29 0.29 0.58 0.38 0.46 0.51 0.52 0.62 0.58 0.57 0.61 0.55 0.58 0.58 0.62 0.67 0.66 0.61 0.64 0.63 0.62 0.65 0.58 0.64 0.55 0.55 0.57 0.57 0.73 0.66 0.69 0.75 0.74 0.81 0.81 0.73 0.70 0.71 0.80 0.82 0.75 0.71 0.67 0.52 0.45 0.51 0.41 0.49 0.43 0.44 0.42 0.57 0.66 0.66 0.54 0.51 0.64 0.74 0.78 0.79 0.80 0.83 0.82 0.83 0.86 0.89 0.94 0.98 1.08 1.12 1.14
0.42 0.44 0.50 0.52 0.53 0.51 0.52 0.51 0.49 0.45 0.44 0.41 0.30 0.36 0.38 0.30 0.21 0.37 0.37 0.39 0.34 0.50 0.52 0.60 0.55 0.57 0.57 0.56 0.53 0.61 0.65 0.55 0.66 0.65 0.67 0.68 0.63 0.64 0.69 0.67 0.69 0.64 0.50 0.58 0.59 0.59 0.59 0.72 0.74 0.74 0.75 0.76 0.76 0.60 0.61 0.62 0.69 0.68 0.63 0.60 0.50 0.42 0.41 0.38 0.44 0.50 0.49 0.58 0.68 0.68 0.71 0.55 0.66 0.73 0.85 0.79 0.81 0.86 0.90 0.89 0.91 0.91 0.90 0.93 0.98 1.08 1.11 1.11
0.41 0.44 0.45 0.51 0.53 0.60 0.57 0.55 0.51 0.49 0.39 0.36 0.30 0.28 0.32 0.25 0.25 0.44 0.37 0.39 0.40 0.55 0.54 0.51 0.52 0.55 0.56 0.49 0.55 0.62 0.54 0.65 0.63 0.62 0.65 0.61 0.61 0.57 0.63 0.69 0.71 0.67 0.67 0.62 0.53 0.56 0.46 0.49 0.62 0.73 0.63 0.80 0.75 0.72 0.70 0.66 0.67 0.65 0.73 0.66 0.55 0.53 0.44 0.37 0.42 0.38 0.43 0.49 0.60 0.70 0.60 0.52 0.55 0.61 0.91 0.92 0.91 0.92 0.95 0.97 1.01 1.03 1.03 1.03 1.07 1.11 1.12 1.11
0.41 0.42 0.52 0.56 0.60 0.72 0.59 0.51 0.47 0.48 0.40 0.34 0.25 0.22 0.19 0.23 0.31 0.33 0.35 0.37 0.41 0.46 0.43 0.48 0.43 0.48 0.50 0.55 0.59 0.61 0.59 0.55 0.66 0.64 0.61 0.58 0.53 0.59 0.57 0.60 0.71 0.73 0.70 0.56 0.58 0.60 0.52 0.53 0.66 0.81 0.79 0.82 0.73 0.80 0.83 0.75 0.72 0.80 0.78 0.77 0.62 0.56 0.66 0.46 0.51 0.50 0.50 0.50 0.51 0.59 0.57 0.68 0.65 0.88 0.95 0.99 0.98 0.98 1.01 1.02 1.04 1.04 1.08 1.10 1.10 1.13 1.13 1.16
0.36 0.37 0.59 0.58 0.59 0.78 0.74 0.52 0.47 0.47 0.39 0.27 0.22 0.22 0.23 0.28 0.30 0.41 0.37 0.45 0.44 0.41 0.37 0.40 0.37 0.38 0.47 0.50 0.59 0.59 0.70 0.61 0.66 0.65 0.59 0.59 0.59 0.58 0.65 0.65 0.66 0.71 0.65 0.57 0.60 0.50 0.54 0.48 0.70 0.76 0.83 0.81 0.79 0.83 0.81 0.81 0.52 0.67 0.73 0.57 0.63 0.78 0.69 0.57 0.57 0.59 0.59 0.54 0.47 0.65 0.60 0.67 0.87 0.89 0.94 0.95 0.95 0.93 0.99 0.99 1.01 1.04 1.08 1.09 1.09 1.16 1.18 1.20
0.32 0.39 0.53 0.64 0.79 0.88 0.82 0.63 0.49 0.43 0.35 0.24 0.19 0.19 0.30 0.37 0.42 0.42 0.45 0.43 0.43 0.42 0.37 0.26 0.32 0.34 0.38 0.44 0.50 0.57 0.61 0.67 0.63 0.62 0.51 0.61 0.54 0.61 0.62 0.67 0.75 0.73 0.73 0.68 0.61 0.67 0.50 0.49 0.68 0.70 0.68 0.80 0.89 0.88 0.85 0.84 0.82 0.72 0.58 0.65 0.81 0.85 0.76 0.60 0.42 0.49 0.50 0.44 0.48 0.61 0.54 0.59 0.63 0.54 0.92 0.90 0.89 0.91 0.95 0.98 1.04 1.08 1.09 1.07 1.10 1.14 1.16 1.19
0.35 0.36 0.60 0.77 0.83 0.94 0.87 0.77 0.54 0.40 0.33 0.23 0.20 0.25 0.37 0.36 0.46 0.46 0.47 0.43 0.43 0.46 0.39 0.34 0.39 0.45 0.38 0.40 0.46 0.54 0.61 0.55 0.55 0.60 0.53 0.59 0.51 0.72 0.67 0.66 0.75 0.74 0.76 0.79 0.63 0.61 0.68 0.48 0.58 0.70 0.72 0.77 0.89 0.83 0.74 0.82 0.89 0.73 0.67 0.84 0.63 0.50 0.48 0.58 0.52 0.39 0.39 0.41 0.45 0.55 0.61 0.61 0.65 0.63 0.79 0.79 0.82 0.86 0.91 0.96 0.98 1.00 1.04 1.06 1.10 1.16 1.23 1.25
0.42 0.40 0.50 0.74 0.97 0.99 0.89 0.77 0.53 0.37 0.26 0.20 0.22 0.26 0.42 0.47 0.51 0.50 0.52 0.44 0.45 0.44 0.39 0.43 0.40 0.47 0.45 0.40 0.48 0.55 0.57 0.49 0.57 0.56 0.50 0.57 0.52 0.66 0.67 0.71 0.67 0.75 0.75 0.74 0.65 0.65 0.68 0.51 0.52 0.68 0.70 0.72 0.78 0.76 0.57 0.66 0.80 0.84 0.86 0.75 0.79 0.68 0.55 0.51 0.54 0.55 0.51 0.41 0.42 0.44 0.55 0.49 0.69 0.72 0.80 0.79 0.85 0.87 0.89 0.91 0.94 0.99 1.01 1.03 1.05 1.08 1.13 1.18
0.36 0.39 0.49 0.80 0.95 0.93 0.90 0.65 0.45 0.36 0.24 0.17 0.26 0.38 0.50 0.49 0.51 0.53 0.55 0.48 0.46 0.47 0.46 0.46 0.48 0.42 0.47 0.47 0.50 0.45 0.55 0.56 0.56 0.56 0.57 0.60 0.56 0.70 0.65 0.76 0.66 0.69 0.71 0.74 0.67 0.70 0.61 0.65 0.44 0.55 0.70 0.71 0.56 0.67 0.59 0.64 0.61 0.65 0.67 0.63 0.66 0.68 0.74 0.67 0.65 0.57 0.49 0.44 0.44 0.42 0.41 0.53 0.69 0.88 0.85 0.83 0.89 0.91 0.91 0.89 0.93 0.97 1.00 1.04 1.06 1.06 1.09 1.12
0.49 0.45 0.52 0.84 0.90 0.92 0.72 0.54 0.44 0.32 0.28 0.38 0.47 0.49 0.51 0.50 0.54 0.53 0.53 0.54 0.52 0.56 0.50 0.49 0.48 0.42 0.44 0.45 0.49 0.58 0.54 0.56 0.59 0.55 0.58 0.59 0.58 0.52 0.71 0.70 0.72 0.66 0.69 0.65 0.64 0.64 0.60 0.58 0.47 0.53 0.55 0.54 0.57 0.70 0.71 0.70 0.70 0.67 0.65 0.59 0.62 0.58 0.52 0.48 0.45 0.66 0.57 0.50 0.42 0.42 0.39 0.58 0.77 0.95 0.91 0.91 0.94 0.96 0.99 0.96 0.94 0.96 0.99 1.01 1.03 1.06 1.09 1.08
0.33 0.33 0.51 0.78 0.89 0.84 0.66 0.42 0.42 0.46 0.43 0.41 0.45 0.52 0.54 0.61 0.55 0.53 0.51 0.53 0.49 0.50 0.57 0.54 0.53 0.49 0.48 0.50 0.54 0.55 0.53 0.53 0.58 0.57 0.59 0.53 0.63 0.62 0.70 0.79 0.75 0.74 0.64 0.56 0.59 0.66 0.69 0.62 0.55 0.48 0.51 0.54 0.64 0.72 0.79 0.78 0.77 0.73 0.70 0.63 0.69 0.65 0.62 0.51 0.41 0.48 0.57 0.54 0.58 0.52 0.45 0.51 0.83 0.93 0.94 0.95 0.94 0.96 0.99 1.00 0.94 0.96 0.97 0.99 1.01 1.04 1.07 1.09
0.31 0.28 0.47 0.61 0.81 0.77 0.58 0.44 0.45 0.45 0.42 0.47 0.59 0.58 0.62 0.61 0.59 0.58 0.55 0.53 0.47 0.47 0.49 0.47 0.47 0.46 0.52 0.54 0.55 0.55 0.56 0.52 0.58 0.55 0.58 0.60 0.61 0.67 0.74 0.77 0.78 0.72 0.72 0.61 0.69 0.65 0.78 0.56 0.52 0.50 0.58 0.64 0.69 0.75 0.76 0.78 0.73 0.67 0.69 0.72 0.68 0.61 0.62 0.55 0.54 0.57 0.50 0.51 0.47 0.47 0.44 0.54 0.80 0.93 0.94 0.96 0.97 0.98 0.98 0.97 0.93 0.93 0.96 0.97 0.98 0.99 1.02 1.04
0.38 0.48 0.55 0.65 0.82 0.76 0.54 0.40 0.39 0.42 0.44 0.52 0.53 0.55 0.64 0.62 0.60 0.57 0.55 0.58 0.54 0.53 0.50 0.51 0.53 0.55 0.49 0.58 0.56 0.50 0.58 0.44 0.61 0.58 0.56 0.64 0.60 0.76 0.77 0.76 0.78 0.69 0.68 0.63 0.58 0.67 0.56 0.57 0.57 0.45 0.44 0.48 0.54 0.62 0.64 0.71 0.72 0.63 0.62 0.67 0.70 0.69 0.69 0.65 0.65 0.63 0.48 0.50 0.49 0.44 0.36 0.52 0.74 0.90 0.92 0.93 0.93 0.93 0.92 0.95 0.96 0.90 0.94 0.96 0.97 0.98 1.00 1.02
0.52 0.64 0.66 0.75 0.83 0.74 0.52 0.55 0.51 0.47 0.47 0.48 0.49 0.50 0.55 0.60 0.66 0.62 0.62 0.61 0.66 0.59 0.56 0.54 0.58 0.61 0.58 0.60 0.55 0.57 0.58 0.52 0.48 0.61 0.61 0.62 0.61 0.74 0.76 0.77 0.79 0.71 0.76 0.81 0.74 0.73 0.60 0.58 0.55 0.42 0.37 0.33 0.34 0.38 0.43 0.52 0.58 0.65 0.69 0.66 0.67 0.64 0.63 0.60 0.51 0.53 0.45 0.50 0.53 0.46 0.46 0.63 0.77 0.84 0.84 0.87 0.89 0.90 0.95 0.95 0.97 0.97 0.95 0.95 0.97 0.98 0.99 0.99
0.51 0.43 0.59 0.66 0.73 0.71 0.66 0.72 0.62 0.53 0.49 0.50 0.47 0.54 0.57 0.54 0.63 0.66 0.66 0.65 0.67 0.65 0.61 0.62 0.64 0.63 0.58 0.57 0.52 0.52 0.50 0.60 0.56 0.52 0.57 0.56 0.60 0.67 0.72 0.75 0.76 0.73 0.76 0.77 0.75 0.71 0.59 0.63 0.59 0.55 0.49 0.47 0.50 0.54 0.63 0.68 0.63 0.58 0.60 0.63 0.63 0.65 0.67 0.65 0.61 0.53 0.45 0.51 0.50 0.55 0.56 0.58 0.66 0.72 0.76 0.81 0.85 0.83 0.84 0.89 0.89 0.90 0.94 0.96 0.97 0.97 0.97 0.98
0.62 0.47 0.49 0.46 0.59 0.65 0.65 0.65 0.59 0.58 0.49 0.56 0.44 0.53 0.52 0.55 0.60 0.61 0.70 0.58 0.68 0.63 0.64 0.62 0.60 0.53 0.55 0.55 0.52 0.51 0.53 0.51 0.59 0.59 0.56 0.55 0.59 0.62 0.70 0.72 0.75 0.78 0.78 0.75 0.77 0.69 0.58 0.53 0.57 0.58 0.56 0.59 0.62 0.60 0.66 0.64 0.58 0.62 0.60 0.56 0.63 0.62 0.63 0.59 0.53 0.50 0.61 0.53 0.45 0.62 0.66 0.59 0.61 0.69 0.73 0.76 0.80 0.82 0.84 0.85 0.87 0.89 0.92 0.94 0.96 0.98 0.99 0.98
0.39 0.50 0.56 0.62 0.48 0.49 0.54 0.56 0.60 0.58 0.59 0.62 0.54 0.57 0.52 0.50 0.53 0.50 0.61 0.65 0.66 0.66 0.55 0.57 0.57 0.59 0.57 0.54 0.54 0.46 0.51 0.50 0.52 0.48 0.56 0.58 0.56 0.59 0.60 0.67 0.69 0.72 0.75 0.74 0.79 0.66 0.56 0.51 0.59 0.59 0.56 0.60 0.61 0.63 0.66 0.62 0.62 0.65 0.65 0.61 0.57 0.60 0.59 0.55 0.56 0.60 0.60 0.49 0.45 0.62 0.68 0.63 0.67 0.73 0.78 0.77 0.79 0.80 0.83 0.85 0.89 0.93 0.95 0.94 0.93 0.92 0.92 0.93
0.50 0.47 0.47 0.59 0.45 0.57 0.58 0.63 0.68 0.65 0.62 0.64 0.61 0.60 0.55 0.55 0.55 0.59 0.57 0.57 0.60 0.59 0.59 0.47 0.52 0.56 0.57 0.61 0.57 0.49 0.52 0.41 0.42 0.51 0.52 0.51 0.53 0.54 0.53 0.58 0.66 0.72 0.71 0.71 0.73 0.74 0.62 0.55 0.59 0.59 0.56 0.58 0.61 0.63 0.66 0.61 0.63 0.66 0.64 0.63 0.61 0.58 0.57 0.58 0.58 0.63 0.61 0.57 0.61 0.65 0.68 0.66 0.74 0.77 0.81 0.83 0.89 0.90 0.91 0.95 0.95 0.91 0.89 0.90 0.88 0.87 0.88 0.90
0.43 0.35 0.31 0.42 0.44 0.48 0.58 0.61 0.63 0.61 0.56 0.67 0.55 0.61 0.59 0.58 0.57 0.61 0.66 0.60 0.55 0.58 0.65 0.55 0.56 0.58 0.59 0.59 0.58 0.49 0.52 0.51 0.49 0.42 0.52 0.51 0.51 0.58 0.53 0.55 0.56 0.65 0.68 0.64 0.68 0.74 0.60 0.54 0.61 0.58 0.53 0.53 0.61 0.64 0.63 0.62 0.60 0.60 0.66 0.64 0.62 0.61 0.60 0.61 0.60 0.63 0.64 0.63 0.67 0.68 0.64 0.63 0.79 0.87 0.85 0.91 0.95 0.95 0.94 0.90 0.88 0.89 0.88 0.86 0.84 0.84 0.85 0.86
0.55 0.55 0.46 0.33 0.29 0.38 0.50 0.59 0.57 0.54 0.50 0.60 0.53 0.59 0.57 0.59 0.58 0.62 0.62 0.68 0.61 0.56 0.58 0.54 0.56 0.55 0.58 0.56 0.53 0.52 0.58 0.56 0.55 0.54 0.55 0.54 0.45 0.59 0.53 0.56 0.61 0.54 0.60 0.59 0.65 0.67 0.65 0.57 0.63 0.57 0.47 0.48 0.58 0.59 0.60 0.63 0.62 0.61 0.57 0.60 0.62 0.59 0.53 0.57 0.55 0.60 0.56 0.56 0.62 0.62 0.57 0.58 0.76 0.87 0.87 0.89 0.90 0.86 0.84 0.83 0.83 0.85 0.86 0.84 0.82 0.83 0.84 0.86
0.51 0.52 0.57 0.46 0.30 0.45 0.49 0.61 0.58 0.53 0.48 0.56 0.57 0.58 0.55 0.56 0.62 0.62 0.55 0.65 0.65 0.64 0.62 0.59 0.57 0.52 0.51 0.48 0.47 0.49 0.55 0.58 0.58 0.59 0.58 0.57 0.59 0.60 0.63 0.61 0.62 0.59 0.58 0.58 0.66 0.61 0.65 0.60 0.54 0.53 0.45 0.45 0.57 0.60 0.58 0.57 0.56 0.50 0.52 0.60 0.65 0.66 0.64 0.65 0.66 0.67 0.63 0.64 0.56 0.49 0.52 0.69 0.76 0.83 0.79 0.81 0.84 0.84 0.82 0.81 0.80 0.83 0.86 0.85 0.84 0.84 0.85 0.85
Wind_Speed
14 14 14 13 13 13 13 13 12 12 12 13 14 14 15 15 16 17 18 18 19 19 20 20 21 22 23 24 25 25 25 24 25 25 25 24 25 26 26 25 24 21 20 19 18 17 15 14 14 13 11 10 10 10 11 14 15 15 15 16 16 16 16 15 14 14 16 16 18 18 18 19 18 17 18 20 24 27 28 26 25 23 23 25 25 27 28 26
14 14 14 14 13 13 13 13 13 12 12 13 13 14 15 16 16 17 18 18 18 19 20 20 21 22 23 24 24 25 24 24 25 25 23 23 25 26 25 24 22 20 18 18 16 14 14 14 14 11 8 7 8 8 10 12 14 14 14 14 15 15 14 13 13 14 15 17 18 17 17 18 19 17 17 21 24 26 28 27 25 24 24 26 26 27 27 26
14 14 14 14 14 13 13 13 13 13 13 13 13 14 15 16 16 17 18 18 18 19 19 20 21 22 22 23 24 24 24 24 23 22 22 23 25 25 24 22 21 19 18 15 14 13 13 14 14 10 6 5 6 7 9 11 12 12 12 13 14 14 14 13 12 12 14 17 17 16 16 16 17 17 18 22 24 25 28 27 27 27 28 29 28 28 27 27
14 15 15 14 14 14 13 13 13 13 13 13 14 14 15 16 16 17 18 18 18 19 19 20 20 21 22 22 23 24 23 22 21 21 22 24 25 24 22 22 20 18 16 14 13 12 12 12 11 9 6 5 5 6 7 10 11 11 12 13 13 12 13 12 11 12 12 14 16 16 16 16 16 16 18 22 22 25 27 25 27 30 31 31 29 28 27 27
14 15 15 15 14 14 14 13 13 13 13 13 14 14 15 16 16 17 18 18 18 18 18 19 20 21 21 22 22 23 22 20 20 21 23 24 24 23 21 21 20 18 16 14 13 11 11 10 9 8 6 4 4 5 6 8 10 10 12 13 12 11 13 13 11 12 12 13 15 15 15 16 18 15 16 20 21 25 26 23 25 30 32 31 30 28 27 26
15 15 15 15 15 14 14 14 13 13 13 13 14 14 15 16 17 17 18 18 18 18 18 19 20 20 21 21 21 21 20 19 20 21 22 22 22 21 21 20 19 18 16 14 13 11 10 8 8 8 6 3 2 4 5 7 9 10 11 11 10 10 12 12 11 11 12 13 13 14 14 16 19 13 14 17 17 21 24 23 25 29 30 30 29 27 26 26
15 15 15 15 15 15 14 14 14 13 13 13 14 14 15 16 17 17 18 18 18 17 18 18 19 20 20 20 20 19 18 19 20 20 20 21 21 20 20 19 18 18 16 14 12 10 9 8 7 8 6 4 2 3 4 6 7 9 10 10 10 10 11 12 11 10 10 12 13 14 14 17 18 13 13 16 14 16 19 20 23 27 28 28 27 26 26 26
15 15 15 15 15 15 15 14 14 13 13 13 14 14 15 16 16 17 18 18 18 17 17 18 18 19 19 19 18 18 18 18 19 18 19 20 20 20 18 19 18 17 16 14 12 10 10 9 7 7 7 4 2 2 3 4 6 8 9 10 10 10 11 11 10 10 9 11 13 12 14 17 18 13 14 15 12 13 16 16 18 23 26 25 25 25 25 26
15 15 15 15 15 15 15 15 14 14 14 14 14 14 15 16 16 17 18 18 17 17 17 17 17 17 17 17 17 17 17 17 17 16 18 20 20 19 18 18 17 16 16 15 12 11 10 9 8 7 6 4 3 2 2 3 6 8 9 10 10 10 10 10 10 9 9 12 12 11 14 18 17 13 14 16 13 13 16 14 13 18 21 20 22 22 23 24
15 15 15 15 15 15 15 15 14 14 14 14 14 14 15 16 16 17 17 17 17 16 16 16 16 16 16 16 16 16 17 17 16 15 17 19 20 19 18 17 16 15 16 15 12 11 10 9 8 7 5 4 4 1 1 3 6 7 8 9 9 10 11 10 9 9 10 12 12 12 16 18 16 13 14 17 15 13 17 16 12 14 17 16 18 19 19 21
15 15 15 15 15 15 15 15 15 14 14 14 14 14 15 16 16 17 17 17 17 16 16 16 15 15 15 15 14 15 16 16 15 14 16 18 19 19 18 16 15 15 15 15 13 11 10 9 8 7 6 5 4 2 1 3 5 6 7 8 8 8 9 9 9 9 10 12 10 12 17 18 15 13 15 18 17 14 17 17 13 13 15 16 17 17 17 19
15 15 15 15 15 15 15 15 15 14 14 14 14 14 15 15 16 17 17 17 16 15 15 15 14 14 14 14 13 14 16 15 14 14 15 18 19 18 18 17 15 15 15 15 14 12 11 9 8 8 6 5 5 3 0 2 4 5 7 7 7 6 6 7 8 9 11 11 10 12 17 16 13 14 15 16 17 15 16 17 14 13 15 16 16 16 16 19
15 16 16 15 16 16 15 15 15 14 14 14 14 14 15 15 16 17 17 17 16 15 14 14 13 13 13 12 13 14 15 14 14 14 14 17 18 18 19 18 15 15 14 14 14 13 11 9 8 8 5 5 5 4 2 2 4 6 6 7 8 6 5 7 8 8 10 10 10 13 16 15 14 15 16 15 16 16 15 15 14 13 14 15 15 15 16 18
15 16 16 16 16 16 15 15 15 14 14 14 14 14 15 15 16 16 17 17 16 14 13 12 11 12 11 12 14 14 14 14 13 12 13 15 17 17 18 18 17 16 15 14 14 13 11 9 9 8 6 5 4 4 4 3 4 6 6 7 7 6 5 5 6 7 9 10 10 13 15 13 13 14 15 15 15 16 16 14 13 14 15 15 15 15 17 17
15 16 16 16 16 16 15 15 15 15 14 14 14 14 14 15 15 16 17 16 14 13 12 11 10 10 11 12 14 14 12 12 12 11 13 14 15 16 16 17 19 18 16 15 14 13 11 10 10 9 7 5 4 5 5 4 4 6 7 6 6 7 5 3 4 7 8 8 9 12 13 12 11 12 14 14 13 15 16 14 13 15 16 16 15 15 17 16
15 16 16 16 16 16 16 16 15 15 14 14 14 14 14 14 15 15 16 15 13 11 11 10 9 9 11 11 13 13 11 11 12 11 12 13 14 15 14 17 19 20 19 16 14 13 11 11 10 8 7 7 6 5 5 6 5 6 7 6 4 5 4 3 3 6 7 8 8 11 12 11 10 11 12 13 12 13 15 15 15 16 16 16 15 16 16 16
15 16 16 16 16 16 16 16 15 15 14 14 14 14 14 14 14 14 14 13 11 10 10 10 9 9 9 10 12 12 11 11 12 11 11 12 13 14 14 16 19 20 20 18 15 14 13 11 10 8 8 7 7 7 7 6 5 5 5 4 4 4 4 3 3 4 7 7 8 9 11 11 10 11 11 11 11 12 14 15 15 16 16 15 15 16 16 16
15 16 16 16 16 16 16 16 15 15 14 13 13 13 13 12 12 12 12 11 10 10 11 9 8 8 8 9 11 12 12 11 11 10 11 12 13 13 13 16 17 18 20 19 16 15 14 12 10 9 8 8 7 8 7 5 5 4 4 3 3 4 4 4 3 4 7 7 7 8 9 9 10 11 11 10 11 12 13 14 14 13 14 16 15 16 17 18
15 16 16 16 16 16 15 15 15 14 13 13 12 12 11 11 11 12 12 11 9 10 11 8 6 8 9 9 11 13 13 11 11 10 10 11 13 13 13 15 16 17 18 18 16 16 14 13 11 9 8 7 6 7 6 5 4 3 3 4 4 3 3 4 4 5 8 7 7 8 8 8 10 11 11 10 11 13 14 14 13 11 12 16 17 17 19 18
16 16 16 16 16 15 15 15 15 14 13 11 11 10 10 11 11 11 12 11 9 10 10 9 7 8 11 11 11 12 11 11 11 10 9 10 12 12 13 15 16 16 16 15 15 15 14 14 11 8 6 5 5 5 5 4 3 3 3 4 4 4 3 4 4 5 7 7 7 8 8 7 9 11 11 11 12 13 14 14 13 11 12 16 19 19 19 18
16 16 17 16 16 15 15 15 14 13 12 11 10 9 9 10 11 12 13 11 10 10 10 9 7 8 10 10 11 10 9 10 11 10 9 9 11 12 13 14 15 15 15 14 14 14 14 13 10 7 6 4 4 4 3 3 3 3 3 3 3 4 4 4 4 5 6 7 6 7 7 6 8 10 11 12 12 12 14 14 13 12 13 17 19 19 18 17
16 17 17 17 16 15 14 14 14 12 11 10 9 9 9 10 11 13 13 11 12 10 8 9 8 8 10 10 10 9 7 9 11 9 9 9 10 12 12 13 14 13 14 14 14 13 12 11 10 8 6 5 5 4 3 3 4 4 3 4 4 4 4 3 4 5 6 7 7 6 6 6 8 10 12 12 12 12 13 13 13 14 15 18 18 18 18 16
16 17 17 17 16 15 14 14 13 11 10 9 9 9 10 11 12 13 13 10 11 10 8 8 8 8 9 9 9 7 6 8 9 8 7 8 11 12 12 12 13 12 13 13 12 12 11 10 10 9 8 6 5 4 4 4 4 4 3 4 3 3 5 4 4 6 7 7 7 6 6 7 9 11 12 12 11 11 12 11 12 15 16 18 17 17 17 16
16 17 17 17 16 15 14 13 11 10 10 9 9 10 10 11 12 13 11 8 8 9 7 7 8 8 8 8 7 5 6 8 8 7 6 7 11 14 13 12 13 12 11 10 10 11 9 8 10 10 9 7 6 6 5 5 4 3 4 4 4 4 6 6 6 7 7 7 7 7 6 7 10 11 11 12 11 11 11 10 11 14 16 17 16 15 16 15
17 17 17 17 16 16 15 12 10 10 10 9 9 10 11 11 11 11 10 8 7 7 7 7 8 8 7 6 6 5 7 9 8 7 6 6 9 13 14 13 13 12 10 9 10 10 9 8 9 9 9 7 7 6 6 6 5 5 4 5 6 6 7 7 7 8 8 7 7 7 6 6 9 10 11 11 11 10 10 11 12 14 16 16 15 15 15 14
17 17 17 17 17 16 14 10 9 11 10 9 9 10 10 11 12 11 9 7 7 6 7 7 7 7 7 6 6 6 9 9 8 8 5 5 9 13 15 14 13 12 10 9 9 10 9 9 9 8 8 8 7 6 5 7 7 6 6 8 8 8 8 8 8 9 8 7 7 7 7 6 8 9 10 10 10 10 11 12 13 14 14 14 14 14 14 14
17 18 17 17 16 15 12 10 11 11 9 9 10 10 11 11 12 10 7 6 7 6 6 6 6 7 7 7 5 6 8 8 8 8 5 6 9 12 14 13 13 12 10 9 10 9 8 8 8 8 8 9 8 6 6 7 8 6 6 9 10 9 8 8 9 9 8 7 6 7 8 6 7 9 9 9 10 11 13 13 13 14 14 14 13 13 14 14
18 18 17 16 16 14 11 11 11 10 9 10 11 10 11 11 10 8 5 5 6 6 6 6 7 6 7 7 6 5 7 7 7 7 5 6 9 12 13 12 11 11 11 9 8 8 7 6 6 6 8 8 7 7 7 8 8 6 7 9 9 8 8 8 9 8 7 7 6 7 7 6 5 7 8 9 10 12 12 13 13 13 14 14 13 13 13 13
18 18 17 16 15 13 11 11 11 9 9 10 10 10 11 10 8 6 4 4 6 6 6 6 8 7 7 8 7 7 7 6 6 6 6 7 8 11 12 11 10 11 11 10 7 7 6 4 4 5 7 7 7 7 8 8 7 7 8 9 8 8 7 8 8 6 5 6 6 7 8 6 4 6 7 8 10 11 12 12 12 12 14 14 14 13 12 11
18 18 17 16 14 12 11 11 11 10 10 10 10 10 9 8 7 6 5 5 5 6 5 6 8 8 7 7 7 7 7 6 6 5 6 8 8 10 11 11 11 10 11 12 9 7 6 4 3 5 5 6 6 7 7 6 7 8 8 7 7 6 6 7 6 5 5 5 4 5 6 5 4 5 7 8 9 11 11 11 11 12 12 12 12 12 12 11
19 18 17 15 13 12 11 11 10 10 10 10 9 9 7 7 6 5 5 6 5 6 7 7 8 8 8 7 7 7 7 6 6 6 7 8 9 11 11 11 11 11 11 12 11 9 7 5 4 3 4 5 6 6 6 5 6 7 6 6 7 6 6 6 6 5 5 4 4 4 5 5 5 5 7 7 9 11 11 11 11 11 11 11 10 10 11 11
19 18 17 14 12 12 11 10 10 10 10 9 8 7 5 6 6 5 5 6 5 6 7 7 9 8 8 7 7 7 6 6 6 6 6 7 8 10 9 9 10 10 10 10 11 10 9 7 4 3 3 4 5 5 5 5 5 6 6 6 7 6 6 5 4 4 4 4 4 4 4 4 5 5 5 6 8 9 10 11 11 11 12 12 11 10 10 10
19 18 16 13 12 11 11 11 11 10 9 8 7 6 4 5 6 6 6 6 5 5 6 7 9 8 7 7 7 7 6 6 7 7 7 6 7 8 8 7 8 9 9 9 10 10 9 8 7 5 4 3 4 4 4 3 4 5 5 5 6 6 5 4 4 5 5 5 4 4 4 4 4 4 3 5 7 7 9 10 10 10 12 12 11 10 11 11
19 17 14 12 11 11 11 10 10 8 8 7 5 5 5 5 6 6 6 5 5 5 7 8 8 8 6 6 6 6 5 6 7 7 6 6 6 7 8 8 8 8 8 9 9 8 8 7 7 7 5 3 3 3 3 4 4 4 4 5 5 5 5 4 5 6 5 5 5 4 5 5 4 4 3 5 6 7 7 7 7 9 11 11 10 10 10 11
18 15 13 11 10 10 10 9 8 7 6 5 4 4 4 5 6 6 6 6 6 6 7 8 7 6 6 6 6 6 4 5 7 6 5 6 6 7 8 7 7 8 8 9 8 8 7 6 5 6 6 5 4 4 5 5 4 3 4 5 4 3 5 5 6 7 6 6 5 5 6 7 7 6 6 5 6 6 6 6 6 7 8 9 8 8 9 9
16 13 11 10 9 9 8 8 7 6 5 4 3 4 5 5 6 6 6 6 6 6 8 9 7 6 6 6 6 6 5 4 5 5 5 5 5 7 7 6 6 6 6 6 7 7 8 6 5 6 6 6 5 4 5 5 4 3 4 4 3 4 6 7 6 7 7 7 6 5 6 7 8 8 7 7 7 7 6 6 6 6 7 8 7 7 8 8
14 12 10 10 9 8 7 7 6 5 5 3 3 5 5 6 6 5 6 7 7 6 7 8 7 5 5 6 6 6 6 5 5 5 4 4 5 6 6 5 6 6 5 5 5 6 6 6 5 6 6 4 5 6 5 5 5 5 4 2 3 5 6 7 6 6 6 8 7 6 8 7 7 8 8 8 9 8 6 6 6 7 8 8 7 7 8 8
13 12 10 10 9 8 7 6 5 5 4 3 4 5 5 6 6 6 8 9 8 7 6 6 5 4 4 5 6 6 6 5 5 4 4 4 3 4 5 4 6 6 5 5 6 5 6 6 5 5 5 4 5 6 5 4 5 5 4 3 4 5 5 5 6 6 6 7 7 7 7 7 7 7 8 8 9 8 7 7 7 7 8 8 7 8 8 8
12 11 10 9 9 8 7 6 6 5 4 4 5 6 7 8 8 9 11 11 8 6 5 4 4 4 4 4 5 6 6 5 5 4 3 3 2 3 4 4 5 7 5 4 5 5 5 5 4 4 5 5 4 4 4 4 5 5 5 5 5 5 5 5 5 6 7 7 7 7 6 6 7 7 8 8 8 8 8 8 8 9 9 9 8 8 8 9
11 10 10 9 8 8 7 6 6 5 5 6 7 7 8 8 9 12 13 9 6 5 4 5 5 5 5 5 5 5 5 5 5 4 3 3 3 3 3 3 5 7 6 4 3 4 4 4 3 4 5 5 4 3 3 4 4 5 5 5 4 4 5 5 5 5 6 7 7 7 6 6 6 7 7 8 8 8 8 9 10 10 10 10 9 9 9 9
10 10 10 10 8 8 7 7 6 6 6 7 7 8 8 8 9 12 11 7 4 5 4 5 5 5 5 5 5 6 6 5 5 4 4 4 3 3 4 5 5 6 5 4 4 4 4 3 3 3 4 4 3 2 3 4 3 4 4 3 3 4 5 6 5 4 6 7 7 7 7 6 6 7 6 7 8 8 9 10 10 11 11 11 10 10 9 9
10 10 10 10 9 8 7 7 8 7 6 7 8 9 9 9 9 11 10 6 5 6 6 5 5 5 5 5 5 6 6 5 5 4 4 5 4 4 5 7 7 5 4 3 3 3 2 3 3 2 2 2 3 4 4 3 3 3 3 3 4 5 5 6 5 5 6 8 7 7 6 5 6 7 7 7 8 9 9 9 11 11 11 11 11 10 10 10
10 11 11 10 10 9 7 8 8 7 8 9 9 9 10 9 8 9 8 7 7 7 6 6 5 5 5 5 5 5 5 5 5 5 5 5 5 5 6 7 7 4 3 3 3 3 2 3 2 1 1 2 3 4 4 3 4 3 3 3 4 4 4 5 6 8 8 7 7 6 6 5 6 7 7 8 9 9 9 9 11 11 11 11 11 10 10 10
11 11 10 9 10 9 8 8 9 9 10 9 9 9 9 8 8 7 6 6 6 6 6 6 5 5 5 5 5 5 5 4 5 5 5 5 5 7 7 7 6 4 3 3 3 3 2 2 1 1 1 2 3 4 4 3 3 3 2 2 2 3 5 6 7 8 7 5 5 6 6 6 7 7 8 9 9 9 9 9 10 10 10 10 10 10 10 9
11 10 10 9 9 9 9 9 9 10 10 9 9 9 9 9 8 6 6 6 6 6 6 6 5 5 5 5 5 6 5 4 5 6 5 5 5 6 7 7 5 4 4 3 3 2 1 0 1 2 1 0 1 1 2 3 3 2 1 2 1 4 7 7 7 7 5 5 5 6 8 8 7 7 8 8 8 9 9 9 9 9 9 10 10 10 9 9
10 10 10 10 9 9 10 10 9 10 11 9 9 10 10 10 9 7 7 7 7 6 6 6 5 5 5 5 5 6 6 5 5 5 5 5 5 5 6 7 6 5 4 4 4 2 1 1 1 2 2 2 2 2 2 1 1 1 2 3 1 4 6 6 6 5 6 7 6 5 9 11 9 8 9 8 8 9 9 9 9 9 9 9 10 10 9 8
10 10 10 9 10 10 10 10 9 9 11 10 9 10 10 10 10 8 8 9 8 7 7 7 6 6 6 5 5 6 6 6 6 6 6 6 5 5 7 6 5 5 4 3 3 2 1 2 2 2 2 3 3 2 2 0 1 1 2 2 1 2 5 4 4 6 8 7 6 7 10 11 10 9 9 8 7 8 8 8 9 9 9 9 9 9 9 8
11 11 10 10 10 10 9 10 10 10 11 10 9 10 10 9 10 9 9 9 8 7 7 8 8 7 7 6 5 6 7 6 6 6 6 6 5 5 6 4 3 4 3 3 4 2 2 3 4 2 2 2 3 2 1 1 1 0 2 2 1 2 4 4 4 7 7 6 8 11 11 10 10 9 9 8 7 8 8 9 9 9 9 9 8 8 8 7
11 11 11 11 11 11 11 12 12 10 10 10 9 9 9 9 9 9 9 8 8 8 7 7 9 9 8 7 5 6 7 6 7 7 6 6 6 5 5 5 4 4 3 4 5 3 2 4 4 3 2 2 3 2 2 2 1 1 2 2 1 2 4 4 5 6 5 6 10 13 12 9 8 8 8 8 8 9 9 9 9 9 8 8 8 7 7 6
10 11 11 11 11 12 11 11 11 9 9 9 8 9 9 8 8 9 8 7 7 8 6 6 8 9 8 7 6 7 8 7 7 8 7 7 7 6 5 6 6 5 4 5 6 4 3 5 5 3 2 3 4 3 2 2 1 0 1 2 2 3 4 5 6 6 7 8 10 11 11 9 7 8 9 9 9 9 9 9 8 8 7 7 7 7 6 6
11 11 11 10 11 11 11 11 10 8 8 8 8 9 9 9 9 8 8 7 6 7 7 7 9 9 7 7 7 8 10 9 8 9 9 8 8 7 6 7 7 7 6 5 6 6 5 5 5 3 3 4 5 4 3 3 3 2 0 1 2 3 4 4 4 5 8 11 11 10 10 9 8 8 9 10 10 9 9 8 7 7 6 6 6 5 5 4
10 11 10 9 10 10 10 10 9 7 7 8 9 9 8 9 8 7 7 9 8 8 9 9 9 8 8 8 9 10 10 10 10 11 11 11 11 10 10 9 9 8 7 6 6 6 6 6 6 5 4 5 5 5 5 4 3 3 3 2 1 2 4 4 3 3 6 9 10 9 9 9 9 9 9 9 9 8 8 7 7 6 6 6 5 4 4 3
Wind_Direction
334 332 328 325 324 323 321 319 317 315 316 317 319 322 324 326 326 327 328 328 328 330 331 332 332 332 333 335 336 336 336 335 334 334 333 334 336 336 335 334 333 328 327 328 325 322 320 319 315 308 293 277 269 257 242 230 224 223 223 225 228 226 226 228 229 231 229 227 225 224 217 213 217 215 215 217 212 205 202 205 207 209 206 199 198 194 193 195
335 334 331 328 325 324 322 320 319 317 316 316 318 321 324 326 327 328 328 328 328 330 332 332 332 333 334 335 336 337 337 336 335 333 333 337 338 337 337 337 337 336 336 334 329 327 325 323 321 315 297 278 268 250 235 223 218 219 220 221 222 220 219 219 223 227 224 222 221 223 221 212 212 210 207 212 216 212 203 201 202 199 197 195 194 193 193 193
335 334 333 330 327 324 322 320 319 319 317 317 317 321 324 326 328 329 329 328 328 330 331 332 333 334 335 336 337 338 338 337 338 338 340 342 342 341 342 343 343 342 342 340 336 333 328 325 323 323 311 278 262 244 229 218 216 219 218 216 217 216 215 216 221 224 224 223 218 220 222 212 210 205 203 212 217 214 206 203 201 196 194 192 193 195 192 192
334 334 333 332 329 326 323 320 320 319 318 317 317 320 324 326 328 329 329 328 328 330 331 332 334 334 336 336 338 340 339 340 342 344 346 347 348 348 348 349 350 348 348 348 345 340 333 329 329 332 327 291 260 237 224 217 215 216 214 212 215 215 213 219 224 220 222 223 217 216 217 209 202 200 210 215 213 212 209 210 205 195 193 191 192 195 194 193
334 334 333 333 331 327 324 321 320 320 319 317 317 320 323 326 328 330 329 328 329 330 331 333 334 335 337 338 339 341 342 345 346 347 348 350 352 352 354 356 357 355 355 354 351 348 342 340 343 343 333 309 269 235 226 219 213 214 215 210 211 211 211 221 223 219 217 215 217 215 209 203 196 201 216 210 205 206 206 214 208 192 190 191 190 192 192 193
333 333 333 332 331 329 325 323 321 320 319 317 318 320 323 325 328 330 330 330 330 332 333 334 335 336 338 339 341 342 345 346 346 348 350 354 356 357 1 4 3 360 0 0 357 356 353 353 357 350 342 333 282 232 227 218 208 212 217 208 204 206 210 220 219 219 215 206 211 211 208 199 191 205 218 199 198 205 204 213 208 190 187 189 190 192 191 192
333 332 332 331 331 329 326 323 321 320 319 318 318 320 323 325 328 330 330 331 331 333 335 336 337 338 339 342 344 345 345 344 345 351 354 358 0 2 7 9 7 4 3 3 360 1 357 356 360 356 359 355 308 242 234 219 205 205 213 210 203 201 208 218 216 215 213 206 207 208 212 199 186 204 212 191 196 206 203 204 198 187 185 188 190 192 191 191
332 332 331 331 330 329 327 324 322 320 318 317 318 320 322 325 327 329 330 331 332 335 336 337 339 339 342 345 346 347 345 344 350 356 359 1 3 6 8 9 7 4 3 3 1 2 358 355 359 4 10 8 343 272 242 220 213 202 203 207 204 203 207 212 213 210 207 206 204 204 213 202 186 195 201 187 188 195 189 186 186 185 185 188 190 191 193 194
332 331 331 330 329 329 327 325 322 320 318 317 317 320 322 324 327 329 330 331 332 335 336 338 340 341 344 346 349 350 348 350 355 360 4 5 5 7 7 6 5 2 2 3 1 1 1 360 0 6 13 14 16 334 244 200 206 198 194 200 202 205 202 202 208 204 195 196 197 201 212 205 190 189 196 191 189 189 182 179 184 185 184 187 192 193 193 194
332 332 331 330 329 328 327 326 323 320 318 316 317 319 322 324 326 328 330 331 333 335 337 339 340 343 345 347 353 354 351 354 358 2 7 8 7 7 5 5 4 2 2 3 2 3 6 3 1 10 21 17 18 360 235 187 196 194 190 193 196 202 199 195 201 199 188 190 197 206 210 207 201 197 197 196 195 192 185 184 187 187 184 182 187 189 190 193
333 332 331 330 329 328 328 326 323 320 318 316 316 318 321 323 325 328 330 330 332 335 337 338 340 344 346 348 354 355 354 357 359 2 7 9 9 7 5 4 4 3 4 4 4 6 10 10 11 20 22 16 14 1 266 194 196 196 188 189 191 194 195 191 195 196 183 186 207 216 208 205 207 204 199 197 198 194 187 188 192 191 187 182 182 185 191 194
333 332 332 331 330 329 328 327 324 321 318 316 316 317 320 322 325 327 329 331 332 335 337 338 341 344 346 347 346 352 357 359 0 2 4 7 8 7 6 5 4 4 5 7 7 8 12 15 23 23 20 25 28 33 34 191 184 185 179 183 189 183 192 193 193 197 185 193 222 215 201 201 208 209 204 200 200 197 190 190 196 197 191 188 187 186 189 192
334 333 332 331 330 330 328 327 325 322 319 317 316 317 319 321 324 326 328 330 332 334 335 337 341 344 347 345 344 353 359 359 0 0 2 5 7 7 7 6 4 3 5 6 6 7 9 13 27 26 26 38 34 48 70 125 156 169 167 167 177 177 193 195 191 200 198 210 223 203 195 202 210 210 206 203 201 198 193 193 199 200 195 194 195 191 189 190
334 334 333 332 331 330 329 328 326 324 320 318 317 317 318 320 323 325 327 329 331 334 334 337 342 347 347 341 344 350 354 359 1 358 0 4 7 8 8 10 7 2 3 4 3 7 12 18 26 26 29 40 36 50 60 81 135 156 162 162 170 174 189 202 199 205 211 218 210 190 191 203 209 208 204 204 203 198 195 196 198 196 195 196 197 194 190 192
334 334 333 332 332 331 330 329 327 325 322 319 317 317 318 318 321 325 327 328 332 335 336 338 342 348 346 340 346 353 356 2 358 354 0 3 6 7 9 14 14 9 8 7 5 11 23 26 24 24 28 38 48 56 61 78 121 145 156 166 172 176 198 251 219 198 203 209 195 184 189 199 204 203 201 202 204 199 196 198 196 192 194 194 195 194 194 196
335 334 334 332 332 332 331 330 329 327 324 321 319 318 317 317 321 326 327 329 335 339 339 340 341 348 349 347 354 359 0 1 357 356 0 1 4 9 13 16 18 16 13 11 14 19 27 27 25 32 39 47 62 71 75 85 107 134 147 163 177 184 210 251 211 189 183 187 191 186 187 195 198 195 196 201 202 197 195 197 193 191 195 195 196 196 196 197
335 335 334 333 333 332 331 331 330 328 326 323 321 319 317 318 324 330 330 333 339 340 337 338 341 343 345 351 356 357 359 359 1 4 359 357 2 11 16 16 19 20 16 17 23 25 27 27 31 40 46 55 70 79 82 90 109 130 145 171 189 186 195 195 192 186 168 174 194 191 187 195 197 190 192 197 199 194 193 195 194 195 197 197 197 195 194 193
335 335 335 334 333 332 332 331 330 329 328 326 323 320 319 322 329 335 335 336 340 340 337 337 346 346 342 351 355 354 357 359 3 6 0 360 6 12 14 14 18 19 18 22 26 26 26 28 38 43 48 60 73 85 92 102 114 126 148 173 180 170 175 184 187 178 168 175 192 189 191 201 196 190 190 192 194 193 192 193 195 200 198 196 197 193 191 191
336 335 335 335 334 333 333 332 331 331 330 328 326 324 328 331 333 336 335 334 338 339 334 332 343 344 334 337 342 343 352 3 6 6 5 6 11 15 16 15 18 18 20 25 26 27 29 30 37 42 48 64 80 95 104 108 105 104 133 155 172 173 178 185 178 173 172 176 187 183 185 196 194 192 190 184 185 186 190 192 193 199 201 196 194 191 190 190
336 336 335 335 334 334 333 333 332 332 333 331 329 328 332 337 336 335 335 328 322 322 317 314 323 325 322 326 334 341 354 8 9 7 9 10 15 20 18 16 18 20 23 24 24 27 33 34 35 40 49 65 82 99 104 97 89 87 117 149 169 168 173 180 172 176 176 174 188 186 175 182 192 195 189 178 177 181 186 190 190 196 198 191 189 188 188 188
335 336 336 335 335 334 333 333 332 333 335 333 331 331 330 335 337 336 337 327 316 316 307 310 322 317 316 322 332 343 355 5 7 6 7 11 17 18 13 14 16 17 19 22 24 26 33 35 32 37 51 63 70 84 91 78 77 92 118 138 139 145 162 174 164 170 173 168 182 185 171 176 188 190 185 175 175 180 184 187 189 190 187 184 185 184 185 186
334 336 336 335 334 334 332 332 333 334 336 335 333 334 330 332 336 335 337 330 323 324 315 318 325 313 316 321 326 337 347 0 7 5 5 10 13 11 8 12 14 13 14 18 22 22 27 30 25 28 44 59 63 72 84 82 89 98 111 120 123 138 152 167 166 161 160 159 173 179 170 179 183 180 180 178 176 176 180 186 189 185 179 180 184 184 185 186
332 333 335 335 334 333 331 330 331 333 336 338 337 336 331 330 334 334 336 332 326 331 329 330 331 319 322 327 335 347 344 355 8 6 8 13 10 6 5 8 8 8 12 13 16 21 23 20 17 25 41 53 57 63 72 73 86 104 112 113 128 148 144 154 166 157 149 149 160 167 166 179 180 176 178 180 178 173 173 176 180 182 179 178 183 186 185 185
329 331 333 333 332 331 329 327 328 331 335 337 337 337 335 333 336 336 338 338 332 333 338 341 341 336 330 337 356 7 347 354 9 8 10 18 14 8 4 8 8 5 6 10 15 18 20 19 20 27 37 47 53 56 68 72 73 94 116 121 131 140 139 145 152 148 140 140 146 144 146 164 169 171 177 179 179 178 175 172 175 181 180 178 182 185 185 185
327 329 330 330 331 329 327 325 325 330 332 332 334 336 337 336 336 338 341 346 339 332 340 346 346 346 344 352 5 3 351 354 360 3 8 20 18 10 5 8 13 6 1 12 20 14 15 30 36 34 35 45 54 57 74 89 82 76 96 117 124 128 132 135 140 138 131 135 141 133 135 158 164 168 175 175 176 180 180 177 174 175 176 177 180 184 186 189
324 325 327 327 328 327 325 322 321 324 326 327 329 331 332 332 335 339 343 349 344 336 345 351 349 351 350 348 351 359 358 351 353 2 8 9 10 10 7 7 12 9 2 12 20 16 20 33 41 43 43 45 50 55 75 94 88 76 87 103 108 117 124 128 134 134 132 140 142 128 128 148 159 161 164 164 167 172 172 171 172 173 177 180 182 185 188 192
322 322 324 324 325 327 323 317 317 318 320 322 323 326 327 328 332 337 343 350 347 339 341 344 351 355 349 342 345 358 358 353 358 2 4 4 3 6 8 9 11 7 7 15 14 16 30 36 39 47 49 46 48 59 78 91 88 81 90 98 101 109 116 123 128 129 133 140 137 129 122 125 148 156 156 158 166 171 170 170 173 177 183 187 187 187 189 191
319 319 321 321 321 321 317 314 316 315 314 316 319 323 326 328 331 336 351 354 342 339 338 338 348 347 338 342 344 337 343 357 1 351 355 6 2 4 5 7 10 5 10 21 11 11 30 36 42 50 48 48 53 64 81 90 88 84 88 92 95 101 110 121 125 126 132 128 124 137 133 121 148 164 161 164 169 172 175 175 176 180 186 188 184 186 190 187
318 317 317 318 317 315 312 311 311 310 310 313 317 320 323 329 334 340 352 342 332 340 344 343 347 339 327 338 339 325 331 353 359 348 353 356 354 3 3 2 11 10 13 21 12 7 16 20 53 60 53 56 60 69 83 88 88 87 87 88 88 92 102 117 124 123 123 121 123 143 146 136 150 170 168 168 170 172 177 178 176 180 186 185 181 182 183 180
317 316 314 315 314 310 309 306 303 306 312 316 318 319 323 330 338 346 341 329 329 335 336 340 345 343 338 340 335 330 337 352 4 2 355 353 354 1 3 6 16 18 16 19 18 14 11 18 55 63 61 65 65 73 82 80 85 89 84 83 85 88 101 114 125 119 111 123 130 139 154 150 142 164 171 171 173 176 179 178 177 179 181 183 185 182 176 176
316 314 312 312 309 305 306 303 300 305 311 316 320 323 328 330 340 351 329 317 323 329 334 338 342 346 348 343 335 336 345 352 1 3 353 356 1 1 5 11 16 19 17 19 22 22 23 29 38 47 60 66 62 66 73 69 79 85 80 85 88 86 95 102 108 110 113 135 137 134 155 150 135 154 172 175 177 180 181 180 181 177 173 180 188 183 176 179
315 313 310 307 304 302 300 298 300 306 309 314 322 325 328 332 336 332 317 319 321 328 339 342 343 345 341 342 342 337 339 344 351 356 351 354 360 359 6 15 20 22 18 18 22 24 29 32 31 28 37 62 64 55 54 55 68 79 80 87 90 85 89 95 100 110 126 143 137 127 127 128 135 147 169 184 184 184 183 185 189 182 175 183 189 183 179 182
313 312 308 301 299 300 297 294 298 304 307 311 318 322 330 337 325 313 319 328 320 319 332 337 343 347 340 343 345 333 331 338 346 349 347 354 358 355 3 15 24 27 22 19 21 25 30 28 30 32 23 53 73 61 57 62 79 90 89 92 95 92 93 101 110 114 127 132 127 123 114 119 141 145 169 192 190 190 190 193 196 187 182 187 188 183 184 187
312 310 306 298 296 299 297 293 294 299 306 309 315 321 324 318 309 310 319 321 314 320 327 330 336 341 340 340 335 332 333 331 337 344 346 355 1 358 0 6 18 26 22 18 21 31 35 29 36 45 41 49 65 75 94 96 93 92 87 92 99 101 102 112 120 119 125 121 105 105 112 114 124 129 145 169 175 182 185 185 185 179 179 181 183 185 185 187
311 307 303 297 296 297 295 290 288 293 300 304 314 320 307 300 308 316 314 311 315 319 321 328 335 335 333 330 327 335 338 325 333 348 355 359 2 1 1 0 8 18 20 17 18 30 38 30 32 42 47 59 68 81 88 85 87 86 81 90 96 102 105 109 116 116 116 109 96 98 108 107 110 113 114 129 146 155 157 157 163 169 171 171 176 185 183 185
310 306 300 293 292 296 297 290 283 284 290 297 311 305 289 293 308 312 308 311 314 312 316 325 333 331 324 324 324 331 336 331 336 347 354 358 359 1 3 3 5 9 17 21 14 23 35 28 27 39 42 56 77 85 80 78 86 90 88 97 105 106 107 110 111 103 96 97 96 98 105 104 106 107 103 111 125 127 128 136 146 156 163 165 170 176 180 186
308 305 297 288 289 292 292 287 281 280 285 290 283 275 280 297 308 308 307 308 306 311 322 326 326 322 317 319 319 320 328 334 335 338 346 349 350 359 4 7 10 7 15 32 20 21 37 31 29 44 41 44 75 81 74 70 78 90 97 102 100 100 103 108 114 104 89 94 97 98 106 102 97 105 106 104 109 112 116 123 127 133 145 153 156 159 169 179
304 300 291 286 286 283 282 284 279 274 278 282 270 268 281 299 304 304 306 306 303 311 326 325 320 318 314 315 313 315 324 329 326 327 339 344 343 2 12 6 3 3 11 35 30 22 38 35 21 38 50 53 67 71 63 51 59 79 92 96 105 111 110 107 114 120 109 103 101 99 105 100 90 101 108 102 104 109 111 117 121 123 129 135 137 141 148 157
299 294 287 285 281 275 277 279 275 274 276 270 264 271 284 291 297 300 300 298 298 310 320 312 316 324 319 312 307 310 317 319 318 315 323 332 319 342 12 5 351 354 4 30 33 22 34 38 15 18 45 53 54 62 68 54 52 66 74 86 103 113 120 120 120 129 125 115 110 104 103 100 94 99 105 105 107 109 109 112 115 117 121 123 126 129 132 138
293 289 283 279 275 271 275 276 274 277 270 256 254 266 280 288 300 306 302 292 288 306 308 297 309 318 312 309 303 304 310 310 310 308 307 305 285 298 335 356 345 344 354 10 22 19 26 31 15 4 29 45 46 63 96 92 76 76 75 81 97 101 112 120 116 121 126 124 126 117 107 106 105 105 107 109 111 110 109 110 110 111 113 115 119 124 128 133
289 286 279 274 272 273 278 279 276 269 262 263 262 263 275 289 302 309 309 300 286 294 293 292 305 304 299 305 300 299 307 304 299 299 296 296 287 287 311 337 338 337 348 357 358 6 18 23 16 11 30 45 43 62 115 127 106 94 86 80 105 114 117 118 116 122 124 126 133 126 116 115 117 115 114 115 115 111 108 108 109 108 107 110 114 117 121 127
286 280 275 271 270 275 281 278 272 264 259 268 267 263 273 288 299 303 305 301 289 288 291 296 303 299 294 296 293 296 305 299 292 294 286 281 274 265 288 319 330 337 351 343 326 340 17 38 36 35 50 64 53 56 90 125 105 89 83 77 99 118 124 128 137 139 124 120 126 120 113 121 124 121 123 121 118 114 109 108 110 108 106 108 109 111 114 119
284 278 275 268 264 272 282 276 271 267 261 265 268 268 272 280 293 299 300 304 298 291 297 300 301 302 295 289 291 297 301 295 289 290 288 282 274 265 278 303 317 331 348 334 319 332 4 26 32 52 74 64 43 45 64 89 83 74 69 77 98 122 131 134 143 140 128 126 131 119 112 127 126 117 119 121 120 118 115 112 111 109 107 107 107 108 111 112
280 277 277 269 261 268 274 266 264 265 265 267 268 270 272 275 285 292 295 308 303 287 288 297 300 303 295 287 289 290 291 291 288 289 288 281 276 275 280 290 302 312 315 310 311 320 334 352 20 75 59 19 10 17 29 42 55 70 71 70 107 130 124 126 133 130 124 132 139 129 129 140 132 118 118 121 123 124 122 117 114 112 110 108 108 110 111 110
279 275 276 272 263 264 266 263 261 263 264 267 267 268 270 274 283 288 284 296 301 286 281 292 298 300 297 293 291 290 290 285 283 286 284 280 280 277 275 280 290 290 285 296 312 312 299 317 106 129 138 280 314 320 333 354 13 42 35 4 67 129 126 132 137 130 127 136 134 133 142 145 140 131 125 124 125 127 126 121 116 115 113 112 113 114 114 113
276 270 272 275 271 266 265 266 265 263 262 263 266 267 267 269 277 285 282 283 293 293 285 287 295 297 300 301 294 291 290 283 282 285 284 285 282 277 281 281 280 282 284 307 328 316 213 238 222 177 186 211 219 242 268 308 21 18 349 347 360 140 135 134 137 140 146 139 125 138 147 143 145 146 138 133 132 130 129 125 121 119 117 114 114 114 115 115
272 266 266 272 274 270 268 270 271 269 264 259 259 263 268 271 271 274 276 275 283 293 285 285 293 289 284 292 290 285 286 287 290 288 282 282 274 280 292 280 268 288 290 284 306 302 227 264 259 218 224 238 226 232 270 318 87 31 342 341 334 151 146 147 154 159 157 141 135 158 154 144 148 152 146 145 142 135 134 132 128 125 121 118 116 115 114 113
268 266 264 265 266 264 264 268 273 274 268 259 258 262 267 273 270 266 268 272 280 289 282 282 293 286 276 279 279 281 287 291 292 286 280 283 280 287 295 272 260 308 304 267 278 277 223 251 254 241 265 270 243 225 223 178 143 37 343 341 10 132 149 163 169 169 167 157 158 164 159 151 153 153 151 155 148 140 139 137 133 130 127 124 120 116 114 112
267 266 265 267 266 260 259 263 268 272 268 260 260 264 263 268 270 266 264 268 276 283 277 276 285 285 279 276 271 277 282 283 286 282 275 280 282 281 282 270 267 296 292 267 270 261 233 252 253 236 238 269 271 248 201 161 155 322 340 353 48 110 132 142 149 158 156 146 153 157 155 156 160 157 157 159 150 142 141 140 139 138 135 131 125 119 117 117
266 263 264 268 267 261 260 264 265 267 268 263 259 261 259 257 259 262 265 266 270 278 279 273 276 279 277 273 269 272 270 264 269 272 266 272 277 268 266 265 266 279 282 266 263 261 250 251 251 238 232 260 268 249 200 162 160 234 349 15 67 108 123 135 146 150 140 138 149 154 153 158 167 163 159 160 156 149 147 148 149 149 145 137 130 126 125 123
262 259 259 262 262 261 261 263 264 262 264 263 255 255 258 256 254 258 267 270 264 267 273 273 273 276 279 279 275 273 271 263 259 260 259 263 263 256 256 259 260 270 275 264 259 261 252 250 253 240 231 251 254 242 227 197 170 171 122 42 73 124 141 152 163 165 155 150 154 160 162 168 175 170 163 164 166 162 159 158 155 154 152 144 138 136 134 132
261 257 256 254 254 257 257 258 261 257 255 255 250 251 257 260 259 257 264 273 274 269 272 276 274 273 278 281 276 274 275 270 265 266 266 263 259 257 258 256 252 253 255 252 255 256 247 244 246 233 226 246 248 236 230 213 190 218 223 209 209 178 154 149 159 172 167 162 165 174 179 180 180 178 172 172 174 173 171 167 158 151 147 142 141 141 141 149